Location: Berkeley
(37.8716°N, 122.2727°W)
Time: 20:18:08
(UTC-07:00)

ACS3 Solar Sail - Pass Details

Date: 19 May 2026
Orbit: 875 x 955 km, 97.2° (Epoch: 9 June)

Event Time Altitude Azimuth Distance (km) Brightness Sun altitude
Rises 03:29:53 0° 350° (N) 3,479 5.3 -23.1°
Reaches altitude 10° 03:33:35 10° 325° (NW) 2,532 4.2 -22.6°
Maximum altitude 03:36:09 13° 298° (WNW) 2,290 3.6 -22.3°
Enters shadow 03:37:14 13° 285° (WNW) 2,333 3.6 -22.2°
